TimeEST,TemperatureF,Dew PointF,Humidity,Sea Level PressureIn,VisibilityMPH,Wind Direction,Wind SpeedMPH,Gust SpeedMPH,PrecipitationIn,Events,Conditions,WindDirDegrees,DateUTC
12:25 AM,48.0,45.0,89,30.23,7.0,NE,4.6,-,N/A,,Overcast,50,2012-11-28 05:25:00
12:37 AM,48.0,45.0,89,30.23,7.0,NE,5.8,-,N/A,,Overcast,50,2012-11-28 05:37:00
12:54 AM,48.0,43.0,83,30.23,8.0,NE,6.9,-,N/A,,Overcast,50,2012-11-28 05:54:00
1:54 AM,46.9,39.9,77,30.23,10.0,Variable,3.5,-,N/A,,Overcast,0,2012-11-28 06:54:00
2:54 AM,46.0,39.9,79,30.25,10.0,NE,3.5,-,N/A,,Overcast,50,2012-11-28 07:54:00
3:54 AM,45.0,37.9,76,30.25,10.0,NE,5.8,-,N/A,,Overcast,50,2012-11-28 08:54:00
4:54 AM,44.1,37.9,79,30.27,10.0,Variable,3.5,-,N/A,,Overcast,0,2012-11-28 09:54:00
5:54 AM,43.0,37.9,82,30.28,10.0,NE,3.5,-,N/A,,Overcast,40,2012-11-28 10:54:00
6:54 AM,42.1,37.0,82,30.30,9.0,Calm,Calm,-,N/A,,Mostly Cloudy,0,2012-11-28 11:54:00
7:54 AM,39.9,37.0,89,30.32,6.0,Calm,Calm,-,N/A,,Clear,0,2012-11-28 12:54:00
8:54 AM,44.1,37.9,79,30.36,7.0,Calm,Calm,-,N/A,,Mostly Cloudy,0,2012-11-28 13:54:00
9:54 AM,46.0,39.0,76,30.37,8.0,Variable,4.6,-,N/A,,Partly Cloudy,0,2012-11-28 14:54:00
10:54 AM,48.0,37.9,68,30.38,9.0,North,5.8,-,N/A,,Scattered Clouds,350,2012-11-28 15:54:00
11:54 AM,48.9,37.0,64,30.37,10.0,ENE,3.5,-,N/A,,Scattered Clouds,70,2012-11-28 16:54:00
12:54 PM,52.0,36.0,54,30.35,10.0,NNW,5.8,-,N/A,,Clear,330,2012-11-28 17:54:00
1:54 PM,54.0,36.0,51,30.31,10.0,Calm,Calm,-,N/A,,Clear,0,2012-11-28 18:54:00
2:54 PM,55.0,34.0,45,30.30,10.0,Calm,Calm,-,N/A,,Clear,0,2012-11-28 19:54:00
3:54 PM,55.9,34.0,44,30.30,10.0,Calm,Calm,-,N/A,,Clear,0,2012-11-28 20:54:00
4:54 PM,54.0,34.0,47,30.31,10.0,Calm,Calm,-,N/A,,Clear,0,2012-11-28 21:54:00
5:54 PM,45.0,35.1,68,30.32,10.0,SW,3.5,-,N/A,,Clear,230,2012-11-28 22:54:00
6:54 PM,39.9,34.0,79,30.35,5.0,Calm,Calm,-,N/A,,Haze,0,2012-11-28 23:54:00
7:54 PM,39.0,34.0,82,30.36,10.0,SSW,4.6,-,N/A,,Clear,210,2012-11-29 00:54:00
8:54 PM,37.0,34.0,89,30.38,10.0,SW,4.6,-,N/A,,Clear,220,2012-11-29 01:54:00
9:54 PM,36.0,33.1,89,30.38,6.0,Calm,Calm,-,N/A,,Clear,0,2012-11-29 02:54:00
10:54 PM,36.0,36.0,100,30.40,6.0,Calm,Calm,-,N/A,,Clear,0,2012-11-29 03:54:00
11:54 PM,33.1,32.0,96,30.40,5.0,Calm,Calm,-,N/A,,Clear,0,2012-11-29 04:54:00